Weather Service Report


536 
ASUS43 KOAX 221010
RWRNE 

WEATHER ROUNDUP FOR NEBRASKA
NATIONAL WEATHER SERVICE OMAHA NE
400 AM CST WED NOV 22 2017

NOTES: SATELLITE DATA IS BEING USED TO AUGMENT CLOUD COVER ABOVE
       12000 FEET.
       "FAIR" INDICATES FEW OR NO CLOUDS BELOW 12,000 FEET WITH NO
       SIGNIFICANT WEATHER AND/OR OBSTRUCTIONS TO VISIBILITY.

   
NEZ001>004-019>022-054>056-221100-
NEBRASKA PANHANDLE
  
CITY           SKY/WX    TMP DP  RH WIND       PRES   REMARKS
SCOTTSBLUFF    CLOUDY    32  26  78 CALM      30.18F                  
ALLIANCE       CLOUDY    24  23  96 SW6       30.14F WCI  17          
CHADRON        CLOUDY    32  29  88 SW6       30.12F WCI  26          
GORDON         FAIR      34  28  80 SW7       30.12F WCI  28          
KIMBALL        CLOUDY    38  33  81 W10       30.20S WCI  31          
SIDNEY         CLOUDY    33  29  85 W9        30.20R WCI  25          
$$
 
NEZ057>060-069>072-079>082-221100-
SOUTHWEST NEBRASKA
  
CITY           SKY/WX    TMP DP  RH WIND       PRES   REMARKS
NORTH PLATTE   CLOUDY    26  18  71 SE5       30.24F WCI  20          
IMPERIAL       CLOUDY    31  26  82 S7        30.23F WCI  24          
LEXINGTON      CLOUDY    27  15  61 S7        30.32S WCI  19          
MCCOOK         CLOUDY    24  17  74 SE6       30.29F WCI  17          
OGALLALA       CLOUDY    28  24  84 CALM      30.21F                  
$$
 
NEZ005>010-023>029-035>040-094-221100-
NORTH CENTRAL NEBRASKA
  
CITY           SKY/WX    TMP DP  RH WIND       PRES   REMARKS
VALENTINE      CLOUDY    23  18  81 SE5       30.16F WCI  17          
AINSWORTH      CLOUDY    27  17  65 S10       30.19F WCI  17          
BROKEN BOW     CLOUDY    24  13  62 S5        30.27F WCI  18          
O'NEILL        CLOUDY    18  15  88 S8        30.29F WCI   7          
ORD            CLOUDY    18  14  84 SE5       30.30F WCI  11          
THEDFORD       CLOUDY    32  18  55 S9        30.21F WCI  24          
$$
 
NEZ041-046>049-061>064-073>077-083>087-221100-
SOUTH CENTRAL NEBRASKA
  
CITY           SKY/WX    TMP DP  RH WIND       PRES   REMARKS
GRAND ISLAND   CLOUDY    19  14  81 CALM      30.36F                  
AURORA         CLOUDY    15  11  82 SW3       30.37F                  
HASTINGS       CLOUDY    19  10  68 S5        30.36F WCI  12          
HEBRON         CLOUDY    15  11  83 CALM      30.41F                  
HOLDREGE       CLOUDY    24  13  65 S7        30.33S WCI  15          
KEARNEY        CLOUDY    21  14  74 S6        30.34F WCI  13          
YORK           CLOUDY    14  10  85 W5        30.38S WCI   6          
$$
 
NEZ011>018-030>034-042>045-221100-
NORTHEAST NEBRASKA
  
CITY           SKY/WX    TMP DP  RH WIND       PRES   REMARKS
NORFOLK        CLOUDY    11   8  88 CALM      30.34F                  
ALBION         CLOUDY    12   8  84 CALM      30.35S                  
BLAIR          CLOUDY    16  11  83 W3        30.38R                  
COLUMBUS       CLOUDY    12   9  87 CALM      30.38F                  
FREMONT        CLOUDY    13  10  85 NW3       30.39F                  
TEKAMAH        CLOUDY     9   5  84 SW3       30.40F                  
WAYNE          CLOUDY     8   5  89 S3        30.36S                  
$$

NEZ050>053-065>068-078-088>093-221100-
SOUTHEAST NEBRASKA
  
CITY           SKY/WX    TMP DP  RH WIND       PRES   REMARKS
LINCOLN        CLOUDY    13   8  81 MISG      30.42F                  
OMAHA EPPLEY   CLOUDY    18  10  71 CALM      30.40F                  
BEATRICE       CLOUDY    16  11  83 CALM      30.39F                  
FALLS CITY     CLOUDY    16  11  80 W5        30.42F WCI   9          
NEBRASKA CITY  CLOUDY    18  12  76 CALM      30.40F                  
PLATTSMOUTH    CLOUDY    16  11  82 CALM      30.38F                  
$$

NEZ044-045-051>053-067-221100-
OMAHA AREA
  
CITY           SKY/WX    TMP DP  RH WIND       PRES   REMARKS
OMAHA EPPLEY   CLOUDY    18  10  71 CALM      30.40F                  
BLAIR          CLOUDY    16  11  83 W3        30.38R                  
FREMONT        CLOUDY    13  10  85 NW3       30.39F                  
MILLARD        CLOUDY    19  12  75 CALM      30.40F                  
OFFUTT AFB     CLOUDY    15   9  76 CALM      30.39F                  
PLATTSMOUTH    CLOUDY    16  11  82 CALM      30.38F                  
WAHOO          FAIR      17  12  80 CALM      30.39F                  
$$
  

Return to Home page


Western Regional Climate Center, wrcc@dri.edu